Vorticity
6 6 4 3 4 4 5 5 4 4 4 6 6 6 4 4 5 5 4 4 7 6 7 2 4 4 6 7 7 3 7 8
5 6 4 4 3 5 6 6 5 6 5 6 7 8 9 8 5 4 5 5 6 13 4 -1 6 5 1 5 3 -0 4 2
5 5 8 10 9 5 4 7 7 6 6 7 6 7 6 7 7 8 6 5 5 4 1 3 4 -0 1 1 1 -1 -3 0
9 7 4 2 2 4 6 6 8 5 6 5 8 4 4 5 8 8 4 3 4 3 2 3 5 2 2 1 -0 -0 1 1
4 3 5 5 4 4 5 7 7 8 5 6 7 6 6 6 5 3 0 3 3 4 4 4 5 6 7 7 3 3 -0 -0
3 6 6 6 6 6 6 6 6 6 5 6 6 7 7 5 5 4 6 5 4 3 2 1 0 -1 -4 -1 9 10 8 5
6 6 5 4 2 8 8 6 5 6 5 5 5 4 4 4 8 12 16 17 15 12 12 11 11 12 11 7 -12 -10 0 5
3 4 4 5 6 3 -1 -1 -1 2 5 5 6 6 7 9 14 17 17 16 16 13 11 5 1 3 -2 2 4 4 7 3
7 5 5 4 6 7 5 4 5 5 5 4 10 16 14 13 14 12 12 11 1 4 8 3 -1 -1 4 3 3 7 2 3
5 6 4 6 3 2 6 7 5 3 7 14 16 14 9 11 8 5 -7 -0 -2 2 2 7 2 6 7 6 10 7 4 7
9 8 6 5 5 5 4 5 8 10 16 12 3 4 -4 -3 5 9 7 3 4 3 20 30 36 44 49 35 44 43 44 37
5 4 5 4 6 6 6 8 9 10 11 8 3 2 12 0 -4 3 11 6 11 39 88 53 30 18 15 10 20 26 28 16
9 6 5 6 6 7 12 16 18 12 2 6 2 2 5 2 3 9 12 15 31 66 15 8 -30 17 39 13 12 41 27 28
9 3 8 9 9 11 11 5 5 3 1 5 4 4 9 21 46 50 57 57 42 60 -38 -20 -8 -5 46 22 3 16 7 18
4 8 5 7 11 12 11 12 -0 4 3 3 16 30 49 47 26 23 17 20 33 39 29 23 78 48 -45 8 1 3 18 13
7 9 9 8 10 9 4 -1 6 5 13 37 41 31 19 20 7 2 6 11 -2 62 22 -7 -51 -16 41 24 8 14 12 21
8 9 8 11 16 8 4 6 8 30 36 27 21 16 9 8 13 10 6 6 16 31 46 9 16 -2 24 -7 2 14 5 -9
7 8 12 14 5 5 7 24 42 27 26 18 7 7 4 5 11 8 5 16 10 6 36 32 11 27 10 19 -1 7 4 0
12 11 3 8 4 8 32 29 29 20 5 3 6 12 11 12 14 10 9 15 18 9 32 16 18 9 18 20 8 7 6 8
Height
5808 5809 5810 5809 5809 5809 5808 5808 5807 5806 5805 5804 5802 5800 5797 5796 5795 5794 5795 5794 5792 5792 5788 5786 5785 5784 5786 5785 5782 5783 5782 5782
5802 5802 5803 5802 5803 5802 5802 5801 5799 5798 5796 5794 5793 5791 5790 5788 5785 5784 5782 5782 5783 5782 5781 5779 5776 5773 5773 5773 5771 5773 5773 5771
5795 5795 5795 5795 5794 5794 5793 5791 5789 5788 5787 5785 5783 5781 5780 5778 5777 5775 5773 5770 5769 5768 5767 5766 5765 5763 5761 5760 5760 5759 5761 5761
5787 5788 5787 5785 5785 5783 5782 5780 5779 5777 5774 5773 5771 5771 5770 5768 5765 5763 5761 5760 5757 5756 5755 5754 5752 5750 5749 5747 5745 5744 5745 5746
5779 5778 5776 5775 5774 5773 5771 5770 5768 5766 5765 5764 5761 5760 5757 5755 5754 5753 5750 5746 5744 5742 5740 5737 5735 5734 5732 5732 5730 5728 5728 5727
5769 5767 5766 5766 5763 5762 5760 5758 5755 5753 5751 5749 5747 5745 5743 5741 5738 5735 5733 5732 5729 5727 5724 5722 5719 5717 5715 5714 5714 5712 5708 5710
5759 5757 5756 5755 5755 5752 5749 5747 5744 5742 5739 5736 5733 5730 5727 5723 5719 5716 5714 5713 5710 5709 5707 5706 5703 5701 5700 5697 5694 5693 5692 5688
5745 5744 5743 5743 5742 5738 5736 5733 5730 5726 5722 5718 5713 5710 5705 5701 5698 5697 5696 5695 5693 5690 5686 5683 5681 5678 5676 5673 5671 5669 5668 5667
5733 5730 5729 5729 5726 5723 5719 5715 5711 5705 5700 5697 5692 5687 5684 5683 5680 5678 5678 5675 5672 5668 5664 5660 5656 5652 5649 5648 5645 5642 5641 5641
5720 5719 5719 5715 5711 5706 5702 5697 5692 5688 5683 5678 5674 5671 5667 5665 5663 5658 5654 5650 5645 5639 5635 5629 5624 5622 5618 5615 5614 5613 5611 5610
5707 5707 5703 5699 5693 5689 5684 5678 5674 5667 5660 5656 5654 5649 5645 5642 5638 5633 5626 5622 5616 5607 5600 5597 5590 5588 5582 5577 5577 5577 5577 5577
5696 5692 5687 5681 5676 5672 5665 5658 5653 5647 5641 5636 5630 5625 5619 5614 5610 5604 5598 5592 5588 5583 5577 5572 5555 5558 5559 5553 5549 5547 5547 5548
5683 5678 5671 5665 5659 5653 5646 5639 5632 5628 5622 5615 5608 5602 5594 5586 5579 5575 5566 5562 5561 5562 5560 5549 5538 5537 5540 5532 5527 5525 5528 5529
5667 5658 5652 5647 5641 5634 5628 5623 5615 5607 5599 5590 5581 5571 5563 5553 5544 5541 5537 5531 5531 5535 5524 5519 5520 5519 5518 5513 5512 5513 5513 5514
5648 5642 5636 5629 5624 5618 5612 5605 5597 5587 5576 5566 5556 5547 5536 5529 5526 5520 5517 5515 5511 5508 5507 5507 5510 5504 5504 5499 5499 5500 5499 5499
5630 5625 5619 5613 5607 5601 5594 5586 5577 5565 5554 5544 5534 5527 5520 5515 5509 5504 5499 5496 5493 5490 5489 5488 5487 5488 5488 5487 5486 5487 5486 5485
5616 5610 5603 5597 5590 5583 5576 5565 5554 5543 5533 5526 5520 5513 5506 5500 5495 5489 5484 5478 5476 5474 5470 5471 5469 5472 5475 5477 5474 5473 5473 5473
5601 5593 5586 5580 5573 5564 5555 5544 5534 5525 5517 5512 5506 5499 5491 5486 5480 5475 5471 5467 5463 5460 5457 5456 5458 5458 5461 5460 5459 5460 5461 5462
5583 5577 5572 5565 5554 5545 5535 5526 5518 5511 5506 5499 5493 5485 5477 5471 5465 5461 5457 5455 5451 5448 5444 5441 5442 5444 5445 5445 5445 5448 5449 5450